Regional Weather Roundup
Issued by NWS Wakefield, VA

Home | Current Version | Previous Version | Text Only | Print | Product List | Glossary Off
Versions: 1 2 3 4 5 6 7 8 9 10 11 12 13 14 15 16 17 18 19 20 21 22 23 24 25 26 27 28 29 30 31 32 33 34 35 36 37 38 39 40 41 42 43 44 45 46 47 48 49 50

794
ASUS41 KAKQ 231815
RWRAKQ

REGIONAL WEATHER ROUNDUP
NATIONAL WEATHER SERVICE WAKEFIELD VA
100 PM EST FRI FEB 23 2018

Note: "fair" indicates few or no clouds below 12,000 feet with no
significant weather and/or obstructions to visibility. * = Denotes
station may not report precipitation (e.g., rain,snow,etc.),
thunder or fog.

VAZ042-051-052>054-056-231900-
NORTHERN VIRGINIA

CITY           SKY/WX    TMP DP  RH WIND       PRES   REMARKS
WASH NATIONAL  DRIZZLE   44  42  93 CALM      30.49F FOG
DULLES         DRIZZLE   43  42  97 SE7       30.46F FOG
FORT BELVOIR   CLOUDY    44  41  90 CALM      30.48F
QUANTICO       CLOUDY    45  43  93 CALM      30.49F
FREDERICKSBRG* CLOUDY    45  45 100 CALM      30.48F
STAFFORD*      CLOUDY    44  44 100 CALM      30.52F FOG
WARRENTON      CLOUDY    45  40  83 CALM      30.47F HAZE
CULPEPER*      CLOUDY    45  41  86 SE3       30.48F
MANASSAS*      CLOUDY    44  42  93 S3        30.48F
LEESBURG*      CLOUDY    39  39 100 S8        30.45F FOG
WINCHESTER     CLOUDY    43  39  87 S7        30.42F
FRONT ROYAL*   CLOUDY    46  43  87 W3        30.39F
LURAY*         CLOUDY    46  45  93 S3        30.40F
$$

VAZ048-049-060>072-079>083-231900-
CENTRAL AND SOUTH CENTRAL VIRGINIA

CITY           SKY/WX    TMP DP  RH WIND       PRES   REMARKS
RICHMOND       CLOUDY    48  44  86 W3        30.47F
CHESTERFIELD*  CLOUDY    47  43  86 CALM      30.47F
PETERSBURG*    CLOUDY    47  43  85 CALM      30.48F
HANOVER        CLOUDY    46  43  89 CALM      30.49F FOG
TAPPAHANNOCK*  CLOUDY    46  45  96 CALM      30.48F FOG
QUINTON*       CLOUDY    47  46  95 CALM      30.46F
CHARLOTTSVILLE CLOUDY    46  42  86 CALM      30.45F FOG
GORDONSVILLE*  CLOUDY    45  44  97 CALM      30.46F
ORANGE*        CLOUDY    45  41  87 CALM      30.46F
LOUISA*        CLOUDY    44  43  94 W3        30.51F FOG
BUMPASS*       NOT AVBL
FARMVILLE*     CLOUDY   N/A N/A N/A CALM      30.47F
CREWE*         CLOUDY    47  47 100 CALM      30.46F
FORT PICKETT*  CLOUDY    47  47 100 CALM      30.46F
CHASE CITY*    CLOUDY    52  50  95 CALM      30.46F
CLARKSVILLE*   CLOUDY    52  50  93 CALM      30.45F
SOUTH HILL*    CLOUDY    51  47  89 S3        30.51F
LAWRENCEVILLE* CLOUDY    49  46  87 SE3       30.46F
EMPORIA*       CLOUDY    48  46  93 CALM      30.48F
$$

VAZ088>098-231900-
SOUTHEAST VIRGINIA

CITY           SKY/WX    TMP DP  RH WIND       PRES   REMARKS
NORFOLK        FOG       48  47  96 N7        30.46F VSB 1
VIRGINIA BEACH FOG       48  46  93 NW5       30.45F VSB 1/4
NORFOLK NAVAL  NOT AVBL
WEST POINT*    CLOUDY    48  46  91 SW6       30.48F
SALUDA*        CLOUDY    46  46 100 CALM      30.47F
NEWPORT NEWS   CLOUDY    50  47  89 CALM      30.46F
LANGLEY AFB    CLOUDY    48  48 100 CALM      30.46F FOG
FORT EUSTIS    CLOUDY    49  47  91 NW5       30.43F
WILLIAMSBURG*  CLOUDY    54  48  82 CALM      30.47F
HR EXEC AP*    CLOUDY    51  48  89 CALM      30.47F
FRANKLIN*      CLOUDY    51  47  87 CALM      30.47F
US460-WAKEFLD  CLOUDY    50  47  89 CALM      30.46F
$$

VAZ020-022-025-037-045-231900-
WEST CENTRAL AND SOUTHWEST VIRGINIA

CITY           SKY/WX    TMP DP  RH WIND       PRES   REMARKS
STAUNTON*      CLOUDY    48  44  84 S8        30.43F
WAYNESBORO*    CLOUDY    47  45  92 SE3       30.41F
HOT SPRINGS VA CLOUDY    58  54  84 W8        30.40F
LYNCHBURG      CLOUDY    47  43  86 CALM      30.46F
DANVILLE       CLOUDY    50  50 100 CALM      30.46F
SOUTH BOSTON*  CLOUDY    51  48  91 CALM      30.47F
MARTINSVILLE   CLOUDY    49  46  90 CALM      30.48F FOG
ROANOKE        CLOUDY    49  45  86 VRB3      30.46F
BLACKSBURG     PTSUNNY   55  50  81 E5        30.44F
DUBLIN*        FAIR      59  53  81 NE5       30.41F
MARION*        FAIR      75  50  41 SW8       30.39F
HILLSVILLE*    FAIR      66  57  72 SW15      30.39F
RICHLANDS*     FAIR      71  54  54 SW7       30.39F
WISE*          FAIR      72  55  56 SW17G24   30.40F
ABINGDON*      FAIR      76  55  47 W10G16    30.36F
$$

MDZ021>025-VAZ099-100-231900-
SOUTHERN MARYLAND AND THE DELMARVA PENINSULA

CITY           SKY/WX    TMP DP  RH WIND       PRES   REMARKS
PATUXENT RIVER DRIZZLE   44  43  96 CALM      30.47F FOG
BAY BRIDGE APT DRZL/FOG  41  41 100 N7        30.49F VSB 1
LEONARDTOWN    CLOUDY    43  41  93 CALM      30.49F
DOVER          LGT RAIN  43  43 100 NE6       30.47F FOG
GEORGETOWN     CLOUDY    45  43  93 E8        30.47F FOG
EASTON         CLOUDY    45  43  93 CALM      30.52F FOG
CAMBRIDGE      CLOUDY    45  45 100 NE3       30.47F FOG
SALISBURY      CLOUDY    47  46  97 NE8       30.45F FOG
OCEAN CITY     FOG       44  44 100 NE7       30.45F VSB 1
WALLOPS ISLAND FOG      N/A N/A N/A NE10      30.45F VSB 1
ACCOMACK*      CLOUDY    51  51  97 N3        30.45F FOG
$$

NCZ012>017-030>032-231900-
NORTH CENTRAL AND EASTERN NORTH CAROLINA

CITY           SKY/WX    TMP DP  RH WIND       PRES   REMARKS
ROANOKE RAPIDS CLOUDY    52  50  93 CALM      30.47F
RALEIGH        PTSUNNY   59  53  80 CALM      30.45F
ELIZABETH CITY CLOUDY    56  52  86 N6        30.45F
AHOSKIE*       CLOUDY    51  49  92 CALM      30.47F
EDENTON*       CLOUDY    61  54  77 W6        30.46F
CURRITUCK*     CLOUDY    50  48  93 CALM      30.46F
KILL DEVIL HLS CLOUDY    53  53  99 CALM      30.43F
MANTEO         CLOUDY    56  52  86 N8        30.44F
CAPE HATTERAS  CLOUDY    63  56  78 SE7       30.44F
TARBORO*       NOT AVBL
GOLDSBORO      MOSUNNY   73  60  65 SW3       30.41F
WASHINGTON     PTSUNNY   66  56  70 W5        30.44F
GREENVILLE     FAIR      64  54  68 CALM      30.44F
NEW BERN       FAIR      70  60  70 E6        30.43F
WILMINGTON     FAIR      73  63  70 SE9       30.41F
$$

VAZ048-231900-
ELSEWHERE

CITY           SKY/WX    TMP DP  RH WIND       PRES   REMARKS
HARRISBURG PA  CLOUDY    40  38  93 SE9       30.43F FOG
BALTIMORE      DRIZZLE   42  41  96 E5        30.48F FOG
ANNAPOLIS      CLOUDY    44  43  96 CALM      30.49F FOG
ANDREWS AFB    CLOUDY    42  40  93 CALM      30.47F
PHILADELPHIA   DRIZZLE   41  40  96 NE7       30.50F FOG
HENDERSON NC   CLOUDY    51  47  84 S3        30.45F
GREENSBORO     CLOUDY    55  52  89 VRB3      30.43F FOG
ROCKY MOUNT    CLOUDY    57  51  80 VRB3      30.46F
$$

VAZ100-231900-
MARINE

STATION/POSITION TIME  TEMP    WIND        PRES    WAVE   SWELL
                       AIR SEA DIR/SP/G            HT/PER HT/PER
                 (UTC) (F)     (DEG/KT/KT) (MB)    (FT/S) (FT/S)
BRANDYWINE LGT   1736   43      70/  8/  9 1032.4F
CAPE MAY NJ      1742   43 44   80/  8/ 13 1031.3F
LEWES DE         1736   42 43   70/  9/ 10 1031.9F
15NM E FENWICK I 1750   44 43   30/  8/ 10 1031.0F   6/ 8   5/ 8
OCEAN-CITY-INLET 1736   43 42   30/  5/  7 1031.8F
WACHAPREAGUE VA  1736   49 51   30/  6/  8 1031.2F
THOMAS POINT MD  1800   40 42  360/  4/  4   N/A
GOOSES REEF MD   1800   41 42  350/  8/ 10 1033.9
COVE POINT MD    1736   41     350/  5/  5 1032.6F
SOLOMONS ISLAND  1736   43 43  170/  3/  3 1031.5F
BISHOPS HEAD MD  1736   45 48   30/  3/  5 1032.2F
PINEY POINT MD   1736          300/  3/  3   N/A
POTOMAC MD       1740          160/  4/  4 1033.0F
CAMBRIDGE MD     1736   44 48              1032.6F
LEWISETTA VA     1736   43 48   70/  2/  4 1032.0F
RAPPAHANNOCK LGT 1736          330/ 10/ 10 1032.2F
YORK RVR RNG VA  1736          360/  5/  5 1032.2F
YORKTOWN VA      1736      49   CALM  /  1 1031.4F
DOMINION TERM VA 1736   49      60/  1/  3 1032.0F
KIPTOPEKE VA     1736      47  340/ 10/ 12   N/A
CAPE HENRY VA    1736          320/  6/  7   N/A
WILLOUBY STN VA  1736           20/  4/  5 1031.8F
S CRANEY ISL VA  1736           10/  5/  7 1031.8F
CAPE HENRY BUOY  1800      44                N/A     4/ 8   2/11
CAPE CHARLES BUO 1751      44                N/A     4/ 8   2/11
64NM E OF VA BCH 1750   50 51  320/  6/  6 1030.7F   6/ 9   5/ 9
DUCK PIER NC     1736      47   10/ 12/ 13 1030.7F
44100 DUCK FRF   1745      47                N/A     6/ 8   2/11
44056 DUCK FRF   1800      47                N/A     5/ 8   2/11
OREGON INLET NC  1736   51 54  360/ 11/ 15 1030.7F
HATTERAS NC      1736   57 60  130/  4/  6 1030.9F
DIAMOND SHLS NC  1800   64      20/  4/  8   N/A
CAPE LOOKOUT NC  1800           40/  8/  9 1031.0F
$$




USA.gov is the U.S. government's official web portal to all federal, state and local government web resources and services.